THOR AGENA B R/B, 1807

Orbit data source: Space-Track

THOR AGENA B R/B, 1807 is space debris in LEO originally from a launch on Mon, 29 Nov 1965 UTC launched from the Air Force Western Test Range (AFWTR). Debris objects in space refer to the collection of defunct objects orbiting the Earth. Examples of debris include non-operational satellites, rocket bodies, and fragments generated from explosions, collisions, or faulty payload assembly.

Loading next visibility...
Identifier
1807, 1965-098C
Orbit
LEO
Country
Flag of USUS
Related business
Manufacturer
LMSC
Mission
Spacecraft
Bus & Motor
AGENA B, Unknown motor
Mass
600 kg wet, 600 kg dry
Launch date (UTC)
1965-11-29 (61 years ago)
Launch vehicle
Unknown
Launch site
Air Force Western Test Range (AFWTR)
Object type
Payload
Rocket body
Debris
Shape & HBR
Unknown
Radar Cross Section
Large (>1 m²)

Expand to show TLE details & history
Last TLE update: 20 hours ago

TLE from 20 hours ago
0 THOR AGENA B R/B
1  1807U 65098C   26169.10744920  .00000850  00000-0  27404-3 0  9998
2  1807  79.8349  40.7302 1331628  28.8572 337.9930 12.28128613673419
Epoch: 2026-06-18T02:34Z
TLE epoch observation values (Epoch: 2026-06-18T02:34:43.610Z)
Latitude
-0.00002°
Longitude
95.69296°
Altitude
604.127 km
Speed
7.999 km/s
True Right ascension
02h 42m 55s
True Declination
0° 00' 00"
Sunlit
Object was in daylight at epoch
Visualization orbit readout
Latitude
Unknown
Longitude
Unknown
Altitude
Unknown
Speed
Unknown
Apparent Right ascension
Unknown
Apparent Declination
Unknown
Sunlit
N/A
Visualization observer readout
Local Sidereal Time
09:41:44
Azimuth
Unknown
Elevation
Unknown
Doppler factor
Unknown
Orbital elements
Apogee altitude
2,611.119 km
Perigee altitude
498.388 km
Semi-major axis
7,932.891 km
Eccentricity
0.13316
Inclination
79.8349°
RAAN
40.7302°
Arg. of periapsis
28.8572°
True anomaly
331.25662°
Mean anomaly
337.993°
Eccentric anomaly
334.73684°
Mean motion
3.07182 °/min
Orbital period
117.19 mins
BSTAR
0.00027404
Loading maneuver chart data...
Computing Atmospheric mass density...
Loading historical data...
Loading historical data...
Loading historical data...
Loading historical data...
Loading historical data...
Loading historical data...
Loading historical data...

Documentation

Showing up to 5 results
|